| time (UTC) | temp F | wind direction | speed knots | gust knots | rain 1hr in | rain 24hr in | rain mn in | humidity % | barometer mb |
| 20260502180504 | 71 | 32 | 3.5 | 7.8 | 0.00 | 0.30 | 0.01 | 53 | 1021.7 |
| 20260502170504 | 69 | 13 | 2.6 | 7.8 | 0.00 | 0.32 | 0.01 | 58 | 1022.0 |
| 20260502164004 | 68 | 334 | 3.5 | 8.7 | 0.00 | 0.33 | 0.01 | 63 | 1022.2 |
| 20260502163504 | 68 | 334 | 3.5 | 8.7 | 0.00 | 0.34 | 0.01 | 64 | 1022.2 |
| 20260502163011 | 68 | 352 | 2.6 | 8.7 | 0.00 | 0.34 | 0.01 | 66 | 1022.2 |
| 20260502162503 | 67 | 16 | 2.6 | 7.8 | 0.00 | 0.34 | 0.01 | 68 | 1022.1 |
| 20260502162025 | 67 | 342 | 3.5 | 7.8 | 0.00 | 0.34 | 0.01 | 68 | 1022.2 |
| 20260502161503 | 67 | 333 | 2.6 | 7.8 | 0.00 | 0.34 | 0.01 | 69 | 1022.1 |
| 20260502161003 | 67 | 12 | 1.7 | 7.0 | 0.00 | 0.34 | 0.01 | 72 | 1022.1 |
| 20260502160525 | 66 | 26 | 1.7 | 7.0 | 0.00 | 0.35 | 0.01 | 71 | 1022.2 |
| 20260502152003 | 63 | 348 | 2.6 | 6.1 | 0.00 | 0.39 | 0.01 | 85 | 1022.1 |
| 20260502151503 | 63 | 3 | 2.6 | 5.2 | 0.00 | 0.40 | 0.01 | 87 | 1022.0 |
| 20260502151003 | 62 | 3 | 2.6 | 7.0 | 0.00 | 0.41 | 0.01 | 89 | 1022.0 |
| 20260502150503 | 62 | 336 | 2.6 | 8.7 | 0.00 | 0.42 | 0.01 | 91 | 1022.1 |
| 20260502130503 | 53 | 330 | 2.6 | 5.2 | 0.00 | 0.65 | 0.01 | 89 | 1021.0 |
| 20260502123503 | 50 | 327 | 0.0 | 1.7 | 0.00 | 0.68 | 0.01 | 90 | 1020.4 |
| 20260502123004 | 50 | 345 | 0.0 | 0.9 | 0.00 | 0.69 | 0.01 | 90 | 1020.3 |
| 20260502122503 | 49 | 345 | 0.0 | 0.9 | 0.00 | 0.70 | 0.01 | 90 | 1020.3 |
| 20260502122004 | 49 | 345 | 0.0 | 0.9 | 0.00 | 0.71 | 0.01 | 91 | 1020.1 |
| 20260502121503 | 49 | 0 | 0.0 | 0.0 | 0.00 | 0.72 | 0.01 | 91 | 1020.0 |
| 20260502121004 | 49 | 0 | 0.0 | 0.0 | 0.00 | 0.74 | 0.01 | 91 | 1020.0 |
| 20260502120506 | 49 | 0 | 0.0 | 0.0 | 0.00 | 0.75 | 0.01 | 91 | 1019.8 |
| 20260502115504 | 49 | 0 | 0.0 | 0.0 | 0.00 | 0.79 | 0.01 | 91 | 1019.7 |
| 20260502115003 | 49 | 0 | 0.0 | 0.0 | 0.00 | 0.80 | 0.01 | 91 | 1019.5 |
| 20260502114504 | 49 | 0 | 0.0 | 0.0 | 0.00 | 0.81 | 0.01 | 91 | 1019.5 |
| 20260502114024 | 49 | 0 | 0.0 | 0.0 | 0.00 | 0.82 | 0.01 | 91 | 1019.4 |
| 20260502113503 | 49 | 0 | 0.0 | 0.0 | 0.00 | 0.83 | 0.01 | 91 | 1019.4 |
| 20260502113004 | 49 | 0 | 0.0 | 0.0 | 0.01 | 0.83 | 0.01 | 91 | 1019.2 |
| 20260502112503 | 50 | 0 | 0.0 | 0.0 | 0.01 | 0.84 | 0.01 | 91 | 1019.3 |
| 20260502112004 | 50 | 0 | 0.0 | 0.0 | 0.01 | 0.85 | 0.01 | 91 | 1019.2 |
| 20260502111503 | 50 | 0 | 0.0 | 0.0 | 0.01 | 0.85 | 0.01 | 91 | 1019.2 |
| 20260502111003 | 50 | 0 | 0.0 | 0.0 | 0.01 | 0.85 | 0.01 | 91 | 1019.2 |
| 20260502110503 | 50 | 0 | 0.0 | 0.0 | 0.01 | 0.86 | 0.01 | 91 | 1019.2 |
| 20260502110025 | 50 | 0 | 0.0 | 0.0 | 0.01 | 0.86 | 0.01 | 91 | 1019.1 |
| 20260502105510 | 50 | 0 | 0.0 | 0.0 | 0.01 | 0.86 | 0.01 | 91 | 1019.1 |
| 20260502105003 | 50 | 0 | 0.0 | 0.0 | 0.01 | 0.87 | 0.01 | 91 | 1018.8 |
| 20260502104503 | 50 | 345 | 0.0 | 0.9 | 0.01 | 0.88 | 0.01 | 91 | 1018.7 |
| 20260502104003 | 50 | 345 | 0.0 | 0.9 | 0.01 | 0.88 | 0.01 | 91 | 1018.7 |
| 20260502103503 | 50 | 345 | 0.0 | 0.9 | 0.01 | 0.89 | 0.01 | 91 | 1018.7 |
| 20260502103003 | 51 | 0 | 0.0 | 0.0 | 0.00 | 0.88 | 0.00 | 91 | 1018.7 |
| 20260502102503 | 51 | 0 | 0.0 | 0.0 | 0.00 | 0.89 | 0.00 | 91 | 1018.6 |
| 20260502101503 | 51 | 0 | 0.0 | 0.0 | 0.00 | 0.90 | 0.00 | 91 | 1018.6 |
| 20260502101003 | 51 | 343 | 0.0 | 1.7 | 0.00 | 0.90 | 0.00 | 91 | 1018.6 |
| 20260502100504 | 51 | 322 | 0.0 | 1.7 | 0.00 | 0.91 | 0.00 | 91 | 1018.4 |
| 20260502091503 | 52 | 320 | 0.9 | 3.5 | 0.00 | 0.94 | 0.00 | 91 | 1018.2 |
| 20260502091003 | 52 | 320 | 1.7 | 3.5 | 0.00 | 0.94 | 0.00 | 91 | 1018.2 |
| 20260502090524 | 52 | 324 | 1.7 | 3.5 | 0.00 | 0.94 | 0.00 | 91 | 1018.1 |
| 20260502071524 | 53 | 341 | 0.9 | 2.6 | 0.00 | 0.94 | 0.00 | 91 | 1017.7 |
| 20260502071003 | 53 | 324 | 1.7 | 2.6 | 0.00 | 0.94 | 0.00 | 91 | 1017.8 |
| 20260502070503 | 53 | 313 | 1.7 | 2.6 | 0.00 | 0.94 | 0.00 | 92 | 1017.8 |
| 20260502070003 | 53 | 310 | 1.7 | 2.6 | 0.00 | 0.94 | 0.00 | 92 | 1017.8 |
| 20260502065524 | 53 | 317 | 0.9 | 2.6 | 0.00 | 0.94 | 0.00 | 91 | 1017.7 |
| 20260502065003 | 53 | 329 | 0.9 | 2.6 | 0.00 | 0.95 | 0.00 | 91 | 1017.6 |
| 20260502064503 | 53 | 326 | 0.9 | 2.6 | 0.00 | 0.95 | 0.00 | 91 | 1017.6 |
| 20260502064024 | 53 | 323 | 0.9 | 2.6 | 0.00 | 0.95 | 0.00 | 92 | 1017.6 |
| 20260502063503 | 52 | 324 | 0.9 | 2.6 | 0.00 | 0.95 | 0.00 | 92 | 1017.6 |
| 20260502063003 | 52 | 334 | 0.0 | 1.7 | 0.00 | 0.95 | 0.00 | 92 | 1017.4 |
| 20260502062503 | 52 | 326 | 0.9 | 1.7 | 0.00 | 0.95 | 0.00 | 92 | 1017.7 |
| 20260502062024 | 52 | 328 | 0.9 | 1.7 | 0.00 | 0.96 | 0.00 | 92 | 1017.7 |
| 20260502061503 | 52 | 336 | 0.0 | 1.7 | 0.00 | 0.96 | 0.00 | 92 | 1017.7 |
| 20260502061003 | 52 | 349 | 0.0 | 0.9 | 0.00 | 0.96 | 0.00 | 92 | 1017.6 |
| 20260502060524 | 52 | 349 | 0.0 | 1.7 | 0.00 | 0.96 | 0.00 | 92 | 1017.6 |
| 20260502060003 | 52 | 305 | 0.9 | 2.6 | 0.00 | 0.96 | 0.00 | 92 | 1017.5 |
| 20260502055503 | 52 | 300 | 0.9 | 2.6 | 0.00 | 0.97 | 0.00 | 92 | 1017.6 |
| 20260502055003 | 52 | 312 | 0.9 | 2.6 | 0.00 | 0.97 | 0.00 | 92 | 1017.7 |
| 20260502054503 | 52 | 309 | 0.9 | 2.6 | 0.00 | 0.97 | 0.00 | 92 | 1017.7 |
| 20260502054003 | 53 | 299 | 0.9 | 2.6 | 0.00 | 0.97 | 0.00 | 92 | 1017.8 |
| 20260502053524 | 53 | 291 | 0.9 | 1.7 | 0.00 | 0.97 | 0.00 | 92 | 1017.8 |
| 20260502053003 | 52 | 287 | 0.9 | 1.7 | 0.00 | 0.97 | 0.00 | 92 | 1017.8 |
| 20260502052503 | 52 | 286 | 0.9 | 1.7 | 0.00 | 0.97 | 0.00 | 92 | 1017.9 |
| 20260502052024 | 52 | 286 | 0.0 | 1.7 | 0.00 | 0.97 | 0.00 | 92 | 1018.1 |
| 20260502051503 | 52 | 286 | 0.0 | 1.7 | 0.00 | 0.97 | 0.00 | 92 | 1018.0 |
| 20260502051003 | 52 | 297 | 0.0 | 1.7 | 0.00 | 0.97 | 0.00 | 92 | 1018.0 |
| 20260502050503 | 53 | 327 | 0.9 | 1.7 | 0.00 | 0.97 | 0.00 | 92 | 1018.0 |
| 20260502050003 | 52 | 326 | 0.9 | 1.7 | 0.00 | 0.97 | 0.00 | 92 | 1017.9 |
| 20260502045503 | 52 | 310 | 0.0 | 1.7 | 0.00 | 0.97 | 0.97 | 92 | 1018.0 |
| 20260502044503 | 52 | 316 | 0.0 | 1.7 | 0.00 | 0.97 | 0.97 | 92 | 1018.1 |
| 20260502044003 | 52 | 312 | 0.9 | 2.6 | 0.00 | 0.97 | 0.97 | 93 | 1018.1 |
| 20260502043503 | 52 | 311 | 0.9 | 2.6 | 0.00 | 0.97 | 0.97 | 93 | 1018.2 |
| 20260502043004 | 52 | 300 | 0.9 | 2.6 | 0.00 | 0.98 | 0.97 | 93 | 1018.2 |
| 20260502042504 | 52 | 238 | 0.0 | 1.7 | 0.00 | 0.98 | 0.97 | 92 | 1018.0 |
| 20260502042004 | 52 | 299 | 0.9 | 2.6 | 0.00 | 0.98 | 0.97 | 93 | 1018.1 |
| 20260502041525 | 52 | 317 | 0.9 | 2.6 | 0.00 | 0.98 | 0.97 | 93 | 1018.1 |
| 20260502041004 | 52 | 322 | 1.7 | 4.3 | 0.00 | 0.98 | 0.97 | 93 | 1017.9 |
| 20260502040504 | 52 | 324 | 1.7 | 4.3 | 0.00 | 0.98 | 0.97 | 93 | 1017.9 |
| 20260502040025 | 52 | 325 | 0.9 | 3.5 | 0.00 | 0.98 | 0.97 | 93 | 1017.8 |
| 20260502035504 | 52 | 330 | 0.9 | 3.5 | 0.00 | 0.98 | 0.97 | 93 | 1017.8 |
| 20260502035004 | 52 | 325 | 1.7 | 3.5 | 0.00 | 0.98 | 0.97 | 93 | 1017.9 |
| 20260502034504 | 52 | 327 | 1.7 | 5.2 | 0.00 | 0.98 | 0.97 | 93 | 1017.8 |
| 20260502034004 | 52 | 325 | 2.6 | 5.2 | 0.00 | 0.98 | 0.97 | 93 | 1018.0 |
| 20260502033525 | 52 | 335 | 1.7 | 4.3 | 0.00 | 0.98 | 0.97 | 93 | 1018.0 |
| 20260502033004 | 52 | 20 | 0.9 | 3.5 | 0.00 | 0.98 | 0.97 | 93 | 1017.4 |
| 20260502032504 | 52 | 113 | 0.9 | 2.6 | 0.00 | 0.98 | 0.97 | 93 | 1017.2 |
| 20260502032004 | 52 | 146 | 0.9 | 2.6 | 0.00 | 0.99 | 0.97 | 93 | 1017.5 |
| 20260502031504 | 52 | 44 | 0.9 | 3.5 | 0.00 | 0.99 | 0.97 | 93 | 1017.5 |
| 20260502031028 | 52 | 357 | 0.9 | 3.5 | 0.00 | 0.99 | 0.97 | 93 | 1017.8 |
| 20260502030504 | 52 | 325 | 1.7 | 4.3 | 0.00 | 0.99 | 0.97 | 93 | 1017.9 |
| 20260502030004 | 52 | 325 | 1.7 | 4.3 | 0.00 | 0.99 | 0.97 | 93 | 1018.1 |
| 20260502025504 | 51 | 329 | 1.7 | 4.3 | 0.01 | 1.00 | 0.97 | 93 | 1018.2 |
| 20260502025004 | 51 | 334 | 2.6 | 4.3 | 0.01 | 1.01 | 0.97 | 93 | 1018.0 |
| 20260502024504 | 51 | 338 | 2.6 | 4.3 | 0.02 | 1.01 | 0.97 | 93 | 1017.8 |
| 20260502024004 | 52 | 325 | 1.7 | 4.3 | 0.02 | 1.01 | 0.97 | 93 | 1017.9 |
| 20260502023504 | 52 | 322 | 1.7 | 4.3 | 0.02 | 1.01 | 0.97 | 93 | 1017.6 |
| 20260502023004 | 52 | 344 | 1.7 | 5.2 | 0.02 | 1.01 | 0.97 | 93 | 1017.3 |
| 20260502022504 | 52 | 349 | 1.7 | 5.2 | 0.03 | 1.01 | 0.97 | 93 | 1017.1 |
| 20260502022025 | 52 | 12 | 1.7 | 4.3 | 0.04 | 1.01 | 0.97 | 93 | 1017.1 |
| 20260502021504 | 52 | 27 | 1.7 | 4.3 | 0.04 | 1.01 | 0.97 | 93 | 1017.1 |
| 20260502021004 | 52 | 40 | 1.7 | 6.1 | 0.04 | 1.01 | 0.97 | 93 | 1017.0 |
| 20260502020504 | 52 | 30 | 1.7 | 6.1 | 0.05 | 1.01 | 0.97 | 93 | 1016.9 |
| 20260502020004 | 52 | 5 | 1.7 | 4.3 | 0.05 | 1.01 | 0.97 | 93 | 1017.1 |
| 20260502015504 | 52 | 360 | 1.7 | 5.2 | 0.04 | 1.00 | 0.96 | 93 | 1017.3 |
| 20260502015004 | 52 | 350 | 2.6 | 7.0 | 0.05 | 1.00 | 0.96 | 93 | 1017.4 |
| 20260502014504 | 52 | 338 | 3.5 | 9.6 | 0.04 | 0.99 | 0.95 | 93 | 1017.4 |
| 20260502014025 | 52 | 335 | 3.5 | 9.6 | 0.05 | 0.99 | 0.95 | 93 | 1017.4 |
| 20260502013504 | 53 | 338 | 3.5 | 9.6 | 0.05 | 0.99 | 0.95 | 93 | 1017.1 |
| 20260502013004 | 53 | 335 | 3.5 | 9.6 | 0.05 | 0.99 | 0.95 | 93 | 1016.7 |
| 20260502012504 | 53 | 336 | 3.5 | 7.8 | 0.04 | 0.98 | 0.94 | 93 | 1016.5 |
| 20260502012004 | 53 | 336 | 2.6 | 5.2 | 0.03 | 0.97 | 0.93 | 93 | 1016.4 |
| 20260502011504 | 53 | 337 | 1.7 | 7.8 | 0.03 | 0.97 | 0.93 | 93 | 1016.3 |
| 20260502011025 | 53 | 340 | 1.7 | 7.8 | 0.03 | 0.97 | 0.93 | 93 | 1016.0 |
| 20260502010504 | 54 | 339 | 1.7 | 7.0 | 0.02 | 0.96 | 0.92 | 93 | 1016.1 |
| 20260502010025 | 54 | 332 | 1.7 | 7.8 | 0.02 | 0.96 | 0.92 | 93 | 1016.2 |
| 20260502005504 | 54 | 333 | 0.9 | 7.8 | 0.03 | 0.96 | 0.92 | 93 | 1016.2 |
| 20260502005004 | 54 | 358 | 0.9 | 2.6 | 0.02 | 0.95 | 0.91 | 93 | 1016.1 |
| 20260502004504 | 54 | 19 | 0.9 | 2.6 | 0.02 | 0.95 | 0.91 | 93 | 1015.7 |
| 20260502004004 | 54 | 359 | 0.9 | 5.2 | 0.01 | 0.94 | 0.90 | 93 | 1015.5 |
| 20260502003504 | 54 | 336 | 1.7 | 5.2 | 0.01 | 0.94 | 0.90 | 93 | 1015.5 |
| 20260502003004 | 54 | 342 | 1.7 | 3.5 | 0.02 | 0.94 | 0.90 | 93 | 1015.4 |
| 20260502002504 | 54 | 32 | 1.7 | 3.5 | 0.03 | 0.94 | 0.90 | 93 | 1014.9 |
| 20260502002004 | 54 | 40 | 1.7 | 3.5 | 0.04 | 0.94 | 0.90 | 93 | 1014.6 |
| 20260502001525 | 54 | 33 | 1.7 | 4.3 | 0.05 | 0.94 | 0.90 | 93 | 1014.5 |
| 20260502001004 | 54 | 38 | 1.7 | 4.3 | 0.06 | 0.94 | 0.90 | 93 | 1014.4 |
| 20260502000504 | 54 | 44 | 1.7 | 5.2 | 0.07 | 0.94 | 0.90 | 93 | 1014.3 |
| 20260502000025 | 54 | 39 | 1.7 | 5.2 | 0.08 | 0.94 | 0.90 | 93 | 1014.3 |
| 20260501235504 | 54 | 52 | 1.7 | 5.2 | 0.08 | 0.93 | 0.89 | 93 | 1014.2 |
| 20260501235005 | 54 | 47 | 2.6 | 5.2 | 0.09 | 0.93 | 0.89 | 93 | 1014.1 |
| 20260501234504 | 54 | 43 | 2.6 | 7.0 | 0.10 | 0.93 | 0.89 | 93 | 1014.1 |
| 20260501234004 | 54 | 48 | 2.6 | 7.0 | 0.10 | 0.93 | 0.89 | 93 | 1014.3 |
| 20260501233504 | 54 | 71 | 1.7 | 3.5 | 0.11 | 0.93 | 0.89 | 93 | 1014.1 |
| 20260501233004 | 54 | 76 | 0.9 | 3.5 | 0.10 | 0.92 | 0.88 | 93 | 1014.5 |
| 20260501232504 | 54 | 53 | 0.9 | 3.5 | 0.10 | 0.91 | 0.87 | 93 | 1015.1 |
| 20260501232004 | 54 | 48 | 1.7 | 5.2 | 0.09 | 0.90 | 0.86 | 93 | 1015.4 |
| 20260501231504 | 54 | 77 | 1.7 | 5.2 | 0.08 | 0.89 | 0.85 | 93 | 1015.3 |
| 20260501231004 | 54 | 85 | 0.9 | 2.6 | 0.07 | 0.88 | 0.84 | 93 | 1015.1 |
| 20260501230525 | 54 | 54 | 0.9 | 2.6 | 0.06 | 0.87 | 0.83 | 94 | 1015.2 |
| 20260501230025 | 54 | 47 | 0.9 | 2.6 | 0.06 | 0.86 | 0.82 | 94 | 1015.3 |
| 20260501225526 | 54 | 46 | 0.9 | 1.7 | 0.06 | 0.85 | 0.81 | 94 | 1015.3 |
| 20260501225004 | 54 | 59 | 0.9 | 2.6 | 0.05 | 0.84 | 0.80 | 94 | 1015.4 |
| 20260501224504 | 54 | 31 | 0.9 | 4.3 | 0.05 | 0.83 | 0.79 | 94 | 1015.1 |
| 20260501224004 | 54 | 34 | 1.7 | 4.3 | 0.05 | 0.83 | 0.79 | 94 | 1015.1 |
| 20260501223504 | 54 | 68 | 0.9 | 3.5 | 0.05 | 0.82 | 0.78 | 94 | 1015.1 |
| 20260501223004 | 54 | 75 | 0.9 | 2.6 | 0.06 | 0.82 | 0.78 | 94 | 1014.9 |
| 20260501222504 | 54 | 60 | 1.7 | 4.3 | 0.06 | 0.81 | 0.78 | 94 | 1014.9 |
| 20260501222004 | 54 | 51 | 0.9 | 4.3 | 0.07 | 0.81 | 0.77 | 94 | 1014.5 |
| 20260501221504 | 54 | 53 | 1.7 | 3.5 | 0.07 | 0.81 | 0.77 | 94 | 1014.3 |
| 20260501221004 | 54 | 68 | 1.7 | 3.5 | 0.08 | 0.81 | 0.77 | 94 | 1014.3 |
| 20260501220504 | 54 | 70 | 1.7 | 3.5 | 0.08 | 0.81 | 0.77 | 94 | 1014.3 |
| 20260501220004 | 54 | 59 | 1.7 | 6.1 | 0.07 | 0.80 | 0.76 | 94 | 1014.1 |
| 20260501215525 | 54 | 82 | 1.7 | 6.1 | 0.06 | 0.79 | 0.75 | 94 | 1014.1 |
| 20260501215004 | 54 | 103 | 1.7 | 5.2 | 0.06 | 0.79 | 0.75 | 94 | 1014.2 |
| 20260501214504 | 54 | 68 | 1.7 | 5.2 | 0.05 | 0.78 | 0.74 | 94 | 1014.2 |
| 20260501214004 | 54 | 11 | 1.7 | 5.2 | 0.05 | 0.78 | 0.74 | 94 | 1014.2 |
| 20260501213504 | 54 | 351 | 1.7 | 6.1 | 0.04 | 0.77 | 0.73 | 94 | 1014.5 |
| 20260501213025 | 54 | 359 | 1.7 | 7.0 | 0.04 | 0.76 | 0.73 | 94 | 1014.6 |
| 20260501212525 | 54 | 8 | 0.9 | 7.0 | 0.03 | 0.75 | 0.72 | 93 | 1014.7 |
| 20260501212004 | 54 | 344 | 0.9 | 4.3 | 0.02 | 0.74 | 0.70 | 93 | 1014.8 |
| 20260501211504 | 54 | 348 | 1.7 | 7.0 | 0.02 | 0.74 | 0.70 | 93 | 1014.5 |
| 20260501211007 | 54 | 355 | 1.7 | 7.0 | 0.01 | 0.73 | 0.69 | 93 | 1014.6 |
| 20260501210504 | 55 | 347 | 2.6 | 7.0 | 0.01 | 0.73 | 0.69 | 93 | 1014.4 |
| 20260501210004 | 55 | 336 | 2.6 | 7.0 | 0.01 | 0.73 | 0.69 | 93 | 1014.4 |
| 20260501205504 | 55 | 332 | 1.7 | 4.3 | 0.01 | 0.73 | 0.69 | 93 | 1014.5 |
| 20260501205004 | 55 | 358 | 1.7 | 7.8 | 0.01 | 0.73 | 0.69 | 93 | 1014.3 |
| 20260501204526 | 55 | 5 | 2.6 | 7.8 | 0.01 | 0.73 | 0.69 | 93 | 1014.2 |
| 20260501204004 | 55 | 6 | 2.6 | 8.7 | 0.01 | 0.73 | 0.69 | 94 | 1014.0 |
| 20260501203504 | 55 | 12 | 2.6 | 8.7 | 0.01 | 0.73 | 0.69 | 93 | 1013.5 |
| 20260501203004 | 55 | 355 | 1.7 | 7.0 | 0.00 | 0.72 | 0.68 | 93 | 1013.4 |
| 20260501202504 | 55 | 6 | 1.7 | 7.0 | 0.00 | 0.72 | 0.68 | 93 | 1013.5 |
| 20260501202025 | 55 | 43 | 1.7 | 5.2 | 0.00 | 0.72 | 0.68 | 93 | 1013.6 |
| 20260501201504 | 55 | 52 | 1.7 | 5.2 | 0.00 | 0.72 | 0.68 | 93 | 1013.4 |
| 20260501201004 | 55 | 51 | 1.7 | 6.1 | 0.00 | 0.72 | 0.68 | 93 | 1013.4 |
| 20260501200504 | 55 | 55 | 2.6 | 6.1 | 0.00 | 0.72 | 0.68 | 93 | 1013.1 |
| 20260501200004 | 55 | 51 | 2.6 | 6.1 | 0.00 | 0.72 | 0.68 | 93 | 1012.7 |
| 20260501195504 | 55 | 48 | 1.7 | 6.1 | 0.00 | 0.73 | 0.68 | 93 | 1012.6 |
| 20260501195004 | 55 | 74 | 1.7 | 6.1 | 0.00 | 0.73 | 0.68 | 93 | 1012.4 |
| 20260501194504 | 56 | 63 | 1.7 | 5.2 | 0.00 | 0.73 | 0.68 | 93 | 1012.4 |
| 20260501194004 | 56 | 42 | 2.6 | 7.0 | 0.00 | 0.74 | 0.68 | 93 | 1012.7 |
| 20260501193504 | 56 | 30 | 3.5 | 12.2 | 0.00 | 0.75 | 0.68 | 92 | 1012.7 |
| 20260501193004 | 56 | 44 | 3.5 | 12.2 | 0.00 | 0.75 | 0.68 | 92 | 1012.5 |
| 20260501192504 | 56 | 52 | 2.6 | 8.7 | 0.00 | 0.75 | 0.68 | 92 | 1012.1 |
| 20260501192004 | 56 | 46 | 2.6 | 11.3 | 0.00 | 0.75 | 0.68 | 92 | 1012.1 |
| 20260501191504 | 56 | 51 | 2.6 | 11.3 | 0.00 | 0.75 | 0.68 | 92 | 1012.0 |
| 20260501191004 | 56 | 49 | 2.6 | 11.3 | 0.00 | 0.75 | 0.68 | 92 | 1011.8 |
| 20260501190504 | 56 | 49 | 2.6 | 7.0 | 0.00 | 0.75 | 0.68 | 92 | 1011.9 |
| 20260501190025 | 57 | 55 | 2.6 | 7.0 | 0.00 | 0.75 | 0.68 | 92 | 1012.1 |
| 20260501185504 | 57 | 67 | 2.6 | 7.8 | 0.00 | 0.75 | 0.68 | 92 | 1012.7 |
| 20260501185025 | 57 | 61 | 1.7 | 7.8 | 0.01 | 0.75 | 0.68 | 92 | 1012.9 |
| 20260501184504 | 57 | 49 | 1.7 | 7.0 | 0.01 | 0.75 | 0.68 | 92 | 1013.3 |
| 20260501184004 | 57 | 61 | 1.7 | 7.0 | 0.01 | 0.76 | 0.68 | 92 | 1013.6 |
| 20260501183505 | 57 | 67 | 1.7 | 5.2 | 0.01 | 0.76 | 0.68 | 92 | 1013.6 |
| 20260501183025 | 57 | 48 | 1.7 | 4.3 | 0.01 | 0.77 | 0.68 | 91 | 1014.0 |
| 20260501182504 | 57 | 61 | 1.7 | 4.3 | 0.01 | 0.80 | 0.68 | 91 | 1014.2 |
| 20260501182004 | 57 | 76 | 1.7 | 7.0 | 0.01 | 0.85 | 0.68 | 91 | 1014.3 |
| 20260501181504 | 57 | 82 | 2.6 | 7.0 | 0.01 | 0.91 | 0.68 | 91 | 1014.5 |
| 20260501181004 | 57 | 78 | 1.7 | 7.0 | 0.01 | 0.93 | 0.68 | 91 | 1014.6 |